Location: Burleson Fire Department Station 2
(32.5391°N, 97.3075°W)
Time: 00:07:03
(UTC+00:00)

NOAA 15 - Pass Details

Date: 19 December 2025
Orbit: 793 x 810 km, 98.5° (Epoch: 20 January)

Event Time Altitude Azimuth Distance (km) Brightness Sun altitude
Rises 00:02:24 0° 132° (SE) 3,313 7.5 -7.7°
Reaches altitude 10° 00:05:11 10° 118° (ESE) 2,383 6.7 -8.2°
Maximum altitude 00:09:12 23° 68° (ENE) 1,666 5.6 -9.0°
Drops below altitude 10° 00:13:14 10° 18° (NNE) 2,386 6.7 -9.8°
Sets 00:16:00 0° 4° (N) 3,317 7.5 -10.3°
